Location: Charleville
(26.4021°S, 146.2454°E)
Time: 02:53:30
(UTC+10:00)

Hubble Space Telescope - Pass Details

Date: 03 December 2021
Orbit: 534 x 538 km, 28.5° (Epoch: 26 January)

Event Time Altitude Azimuth Distance (km) Brightness Sun altitude
Rises 19:19:00 0° 271° (W) 2,687 5.5 -5.5°
Reaches altitude 10° 19:21:54 10° 292° (WNW) 1,791 4.1 -6.1°
Maximum altitude 19:24:36 17° 333° (NNW) 1,402 2.9 -6.6°
Drops below altitude 10° 19:27:18 10° 14° (NNE) 1,781 3.0 -7.1°
Enters shadow 19:28:49 - 27° (NNE) 2,217 3.4 -7.4°
